Skip Page Navigation
NASA JPL Caltech
NASA Logo - Jet Propulsion Laboratory + View the NASA Portal
+ Center for Near-Earth Object Studies
JPL Home Earth Solar System Stars & Galaxies Technology
JPL Solar System Dynamics
BODIES ORBITS EPHEMERIDES TOOLS PHYSICAL DATA DISCOVERY FAQ SITE MAP
IMPORTANT: The SSD Announcement email list is now available. Major changes are coming in the near future, including possible hostname and/or URL changes. To be notified of such changes, subscribe to this email list.

Please visit this page for more details.


JPL Small-Body Database Browser
Search: [ help ]  
80805 (2000 CU103)
Classification: Main-belt Asteroid          SPK-ID: 2080805
Ephemeris | Orbit Diagram | Orbital Elements | Mission Design | Physical Parameters | Discovery Circumstances | Close-Approach Data ]

[ show orbit diagram ]
Orbital Elements at Epoch 2458600.5 (2019-Apr-27.0) TDB
Reference: JPL 19 (heliocentric ecliptic J2000)
 Element Value Uncertainty (1-sigma)   Units 
e .09358430918133283 4.0366e-08  
a 2.45842234409719 1.3156e-08 au
q 2.228352587348902 9.9491e-08 au
i 5.73510939040257 5.1453e-06 deg
node 221.4626666313978 4.4675e-05 deg
peri 248.8263488192841 5.2471e-05 deg
M 26.88123467262463 2.7937e-05 deg
tp 2458495.369221575690
(2019-Jan-11.86922158)
0.00010905 TDB
period 1407.936826327931
3.85
1.1301e-05
3.094e-08
d
yr
n .2556932905426755 2.0524e-09 deg/d
Q 2.688492100845478 1.4387e-08 au
  Orbit Determination Parameters
   # obs. used (total)      816  
   data-arc span      7547 days (20.66 yr)  
   first obs. used      1998-08-27  
   last obs. used      2019-04-26  
   planetary ephem.      DE431  
   SB-pert. ephem.      SB431-N16  
   condition code      0  
   norm. resid. RMS      .52566  
   source      ORB  
   producer      Otto Matic  
   solution date      2019-Jul-13 06:46:35  

Additional Information
 Earth MOID = 1.25285 au 
 Jupiter MOID = 2.42456 au 
 T_jup = 3.478 
[ show covariance matrix ]

Ephemeris | Orbit Diagram | Orbital Elements | Mission Design | Physical Parameters | Discovery Circumstances | Close-Approach Data ]

Physical Parameter Table
Parameter Symbol Value Units Sigma Reference Notes
absolute magnitude H 15.3   n/a MPO432357  

80805 (2000 CU103)          Discovered 2000-Feb-08 by LINEAR at Socorro
Reference: 20040504/Numbers.arcLast Updated: 2004-07-16

[ show close-approach data ]
Ephemeris | Orbit Diagram | Orbital Elements | Mission Design | Physical Parameters | Discovery Circumstances | Close-Approach Data ]
ABOUT SSD CREDITS/AWARDS PRIVACY/COPYRIGHT GLOSSARY LINKS
FirstGov 2020-Jan-22 03:21 UT
(server date/time)  
NASA Home Page
Site Manager:   Ryan S. Park
Webmaster  Alan B. Chamberlin